SERIAL,TIME,MODEL,SN(OPTODE),OXYGEN,SATURATION,TEMPERATURE,CALPHASE,TCPHASE,C1RPH,C2RPH,C1AMP,C2AMP,RAWTEMP,CHECK
9,1324408223,4330,565,62.0152816772460940,16.2440891265869140,6.6854381561279300,51.0544509887695300,51.6070785522460940,55.2095298767089840,3.6024549007415770,1258.0820312500000000,839.9945068359375000,488.3962097167969000,58590
9,1324411816,4330,565,59.2893600463867200,15.4977502822875980,6.6022448539733890,51.4588813781738300,52.0044212341308600,55.6095390319824200,3.6051249504089355,1267.3580322265625000,840.7977905273438000,491.1260986328125000,61857
9,1324415416,4330,565,57.0132904052734400,14.8684101104736330,6.5101408958435060,51.8044700622558600,52.3439598083496100,55.9438018798828100,3.5998458862304688,1275.1810302734375000,841.9724731445312000,494.1465148925781000,40570
9,1324419016,4330,565,51.9834899902343750,13.5081996917724610,6.3675780296325680,52.5685615539550800,53.0946693420410160,56.6891288757324200,3.5944600105285645,1291.8850097656250000,843.5200195312500000,498.8179016113281000,1240
9,1324422616,4330,565,50.2705116271972660,13.0255899429321290,6.2535500526428220,52.8596801757812500,53.3806915283203100,56.9712104797363300,3.5905148983001710,1298.4580078125000000,845.0250244140625000,502.5508117675781000,19507
9,1324426216,4330,565,50.1260986328125000,12.9992799758911130,6.2874398231506350,52.8696899414062500,53.3905296325683600,56.9766998291015600,3.5861659049987793,1298.4780273437500000,846.0535888671875000,501.4415893554687500,47770
9,1324429816,4330,565,43.7953910827636700,11.2932500839233400,6.0627598762512210,53.8956604003906250,54.3985404968261700,57.9815216064453100,3.5829849243164062,1320.5820312500000000,848.7822265625000000,508.7896118164062500,45162
9,1324433416,4330,565,42.9512786865234400,11.0732803344726560,6.0545592308044430,54.0265388488769500,54.5271186828613300,58.1108894348144500,3.5837628841400146,1323.3280029296875000,847.2260742187500000,509.0574951171875000,9090
9,1324436439,4330,565,43.3125801086425800,11.1732597351074220,6.0787439346313480,53.9683113098144500,54.4699211120605500,58.0511207580566400,3.5811998844146730,1321.7500000000000000,846.6572265625000000,508.2672119140625000,16508
9,1324436751,4330,565,50.4333190917968750,13.1264400482177730,6.4314069747924805,52.7682685852050800,53.2908897399902340,56.8736915588378900,3.5828020572662354,1296.1359863281250000,843.4608154296875000,496.7269897460937500,894
9,1324436976,4330,565,56.4312286376953100,14.7528400421142580,6.6081228256225590,51.8482017517089840,52.3869209289550800,55.9707794189453100,3.5838549137115480,1275.9670410156250000,840.9470825195312000,490.9332885742187500,18922
9,1324437033,4330,565,57.5613403320312500,15.0562896728515620,6.6293549537658690,51.6817817687988300,52.2234191894531250,55.8080291748046900,3.5846099853515625,1272.3349609375000000,840.3740844726562000,490.2366943359375000,50070
9,1324437150,4330,565,59.5421218872070300,15.5974302291870120,6.6883568763732910,51.3886985778808600,51.9354705810546900,55.5201416015625000,3.5846710205078125,1265.9360351562500000,839.8157958984375000,488.3004150390625000,6536
9,1324437279,4330,565,62.7699890136718750,16.4916496276855470,6.8065638542175290,50.9050788879394500,51.4603195190429700,55.0463409423828100,3.5860209465026855,1254.9379882812500000,838.6965942382812000,484.4187011718750000,26413
9,1324437411,4330,565,67.2695465087890600,17.7867794036865230,7.0622668266296390,50.2076187133789060,50.7750701904296900,54.3620491027832000,3.5869750976562500,1238.7590332031250000,836.3004150390625000,476.0112915039062500,53744
9,1324437552,4330,565,71.3210525512695300,18.9153900146484380,7.1845440864562990,49.6376304626464840,50.2150611877441400,53.8032188415527340,3.5881650447845460,1225.4310302734375000,834.3521728515625000,471.9858093261719000,22115
9,1324437681,4330,565,79.0845413208007800,21.0872497558593750,7.4013338088989260,48.5801391601562500,49.1760787963867200,52.7663116455078100,3.5902330875396730,1200.3900146484375000,832.0731811523438000,464.8407897949219000,45929
9,1324437825,4330,565,87.3603973388671900,23.3951396942138670,7.5770812034606930,47.5210609436035160,48.1355400085449200,51.7280082702636700,3.5924680233001710,1174.8389892578125000,829.9852294921875000,459.0412902832031000,39696
9,1324437978,4330,565,90.1127166748046900,24.2076606750488280,7.7039752006530760,47.1488800048828100,47.7698707580566400,51.3636817932128900,3.5938029289245605,1165.5479736328125000,828.4293212890625000,454.8499145507812500,21855
9,1324438129,4330,565,96.4024505615234400,26.0876407623291000,8.0027847290039060,46.3007087707519500,46.9365615844726560,50.5351104736328100,3.5985488891601562,1144.0830078125000000,825.2553100585938000,444.9671936035156000,31010
9,1324438246,4330,565,105.0046997070312500,28.5924491882324220,8.2573480606079100,45.2498283386230500,45.9040794372558600,49.5040397644043000,3.5999679565429688,1117.2440185546875000,822.2883911132812000,436.5340881347656000,48779
9,1324438365,4330,565,118.8927993774414000,32.6533203125000000,8.6114616394042970,43.6642990112304700,44.3463096618652340,47.9505805969238300,3.6042709350585938,1075.8909912109375000,818.2501831054688000,424.7829895019531000,38634
9,1324438494,4330,565,130.0778961181640600,36.0275382995605500,8.9610710144042970,42.4201889038085940,43.1239814758300800,46.7331390380859400,3.6091609001159670,1042.5899658203125000,814.7172241210938000,413.1593017578125000,45195
9,1324438623,4330,565,138.3289947509765600,38.4398307800293000,9.0989751815795900,41.6063690185546900,42.3244018554687500,45.9363708496093750,3.6119689941406250,1020.4929809570312000,812.2794799804688000,408.5686035156250000,7332
9,1324438755,4330,565,149.9942932128906200,41.8445014953613300,9.2621240615844730,40.5282897949218750,41.2652015686035160,44.8826904296875000,3.6174929141998290,991.0767211914062000,810.4882812500000000,403.1335144042969000,16009
9,1324438884,4330,565,160.9674987792968800,45.2541007995605500,9.5864419937133790,39.4766502380371100,40.2319717407226560,43.8483009338378900,3.6163249015808105,961.7192993164062000,807.3107910156250000,392.3164978027344000,55444
9,1324439027,4330,565,169.8679962158203000,48.0223007202148440,9.8206748962402340,38.6771087646484400,39.4464302062988300,43.0675392150878900,3.6211009025573730,939.0330810546875000,804.4149169921875000,384.4942016601562500,51536
9,1324439168,4330,565,177.1307067871093800,50.2667198181152340,9.9819803237915040,38.0672111511230500,38.8472099304199200,42.4705505371093750,3.6233370304107666,921.6168823242188000,802.2427978515625000,379.1026916503906000,13753
9,1324439285,4330,565,179.7622985839843800,51.0698814392089840,10.0288200378417970,37.8572387695312500,38.6409111022949200,42.2631111145019500,3.6221919059753420,915.7722167968750000,801.3790283203125000,377.5364074707031000,31183
9,1324439417,4330,565,181.6157073974609400,51.7035789489746100,10.1168804168701170,37.6813507080078100,38.4681091308593750,42.0942497253418000,3.6261439323425293,910.7238769531250000,800.4047851562500000,374.5909118652344000,7248
9,1324439558,4330,565,181.2086029052734400,52.4669189453125000,10.8395595550537110,37.3191986083984400,38.1123008728027340,41.7444801330566400,3.6321790218353270,899.6699829101562000,794.0742797851562000,350.3806152343750000,56974
9,1324439755,4330,565,189.7602996826172000,55.6518516540527340,11.3939199447631840,36.4499893188476560,37.2583084106445300,40.8999900817871100,3.6416850090026855,874.0808715820312000,787.4724121093750000,331.7680969238281000,24920
9,1324439920,4330,565,193.2541046142578000,57.3680992126464840,11.9234504699707030,35.9449310302734400,36.7620887756347660,40.4114685058593750,3.6493759155273438,858.8704223632812000,782.0648193359375000,313.9609069824219000,61313
9,1324440070,4330,565,195.7740020751953000,58.9228286743164060,12.5312595367431640,35.4689712524414060,36.2944602966308600,39.9499206542968750,3.6554639339447020,844.4915161132812000,776.1019287109375000,293.4939880371094000,15117
9,1324440187,4330,565,204.9187011718750000,62.8722381591796900,13.3896598815917970,34.4705390930175800,35.3135108947753900,38.9786682128906250,3.6651608943939210,814.3504028320312000,767.2083740234375000,264.5512084960937500,16126
9,1324440294,4330,565,207.9819946289062500,64.6890792846679700,14.0069599151611330,33.9808807373046900,34.8324317932128900,38.5068702697753900,3.6744379997253420,799.2988281250000000,761.2150268554688000,243.7209014892578000,57582
9,1324440399,4330,565,210.2171936035156200,66.1446762084961000,14.5350198745727540,33.5912094116210940,34.4495811462402340,38.1315612792968750,3.6819839477539062,787.2028198242188000,754.3518066406250000,225.8970947265625000,26805
9,1324440528,4330,565,211.2579040527343800,67.5177612304687500,15.2553701400756840,33.1805610656738300,34.0461082458496100,37.7358207702636700,3.6897048950195312,774.4636230468750000,746.6165771484375000,201.5845031738281200,33899
9,1324440660,4330,565,211.1945953369140600,68.4091186523437500,15.8816204071044920,32.8828010559082000,33.7535705566406250,37.4492797851562500,3.6957089900970460,764.8167724609375000,740.0283813476562000,180.4586944580078000,23558
9,1324440802,4330,565,212.6620941162109400,69.3950500488281200,16.2292003631591800,32.6346015930175800,33.5097084045410160,37.2089309692382800,3.6992189884185790,757.4329223632812000,736.3958129882812000,168.7404937744140600,28271
9,1324440933,4330,565,214.5894927978515600,70.7488708496093800,16.7172908782959000,32.2972908020019500,33.1783103942871100,36.8835296630859400,3.7052230834960938,746.9896240234375000,731.0277709960938000,152.2971038818359400,54061
9,1324441074,4330,565,215.2149963378906200,72.4184799194336000,17.6965599060058600,31.8078193664550780,32.6973991394043000,36.4107284545898440,3.7133259773254395,731.6868286132812000,722.6513061523438000,119.3617019653320300,48947
9,1324441235,4330,565,215.1392974853515600,73.9022293090820300,18.7025604248046880,31.3529300689697270,32.2504806518554700,35.9762611389160160,3.7257840633392334,717.1810302734375000,712.1447143554688000,85.6297378540039000,1839
9,1324441339,4330,565,214.7846984863281200,74.5610809326171900,19.2220897674560550,31.1380596160888670,32.0393791198730500,35.7684898376464840,3.7291109561920166,710.3131103515625000,707.0076904296875000,68.2602615356445300,44790
9,1324441409,4330,565,214.5751037597656200,74.9000473022461000,19.4959201812744140,31.0270996093750000,31.9303607940673830,35.6633987426757800,3.7330400943756104,706.8555908203125000,703.8474731445312000,59.1208114624023440,4646
9,1324441502,4330,565,212.7904968261718800,75.1549301147461000,20.0835704803466800,30.8623294830322270,31.7684707641601560,35.4990310668945300,3.7305600643157960,701.2938232421875000,698.5073242187500000,39.5481491088867200,46137
9,1324441592,4330,565,214.5717010498047000,76.5583496093750000,20.5964794158935550,30.5409202575683600,31.4526901245117200,35.1909904479980500,3.7383038997650146,691.3355102539062000,693.6998291015625000,22.5130596160888670,19783
9,1324441672,4330,565,217.0435943603515600,78.2591705322265600,21.1315193176269530,30.1778697967529300,31.0959892272949220,34.8347206115722660,3.7387309074401855,680.1649169921875000,689.8737792968750000,4.7952351570129395,27997
9,1324441741,4330,565,219.1840057373047000,79.3553009033203100,21.3411006927490230,29.9764499664306640,30.8980998992919920,34.6427116394043000,3.7446060180664062,674.1564941406250000,685.6619873046875000,-2.1296200752258300,941
9,1324441811,4330,565,220.2413024902343800,79.9271926879882800,21.4626007080078120,29.8699302673339840,30.7934398651123050,34.5386695861816400,3.7452239990234375,671.0255737304688000,684.0305175781250000,-6.1400408744812010,35090
9,1324441883,4330,565,222.4819030761718800,81.6406707763671900,22.0344696044921880,29.5124492645263670,30.4422206878662100,34.1851501464843750,3.7429280281066895,659.7330932617188000,679.7131958007812000,-24.9737205505371100,34054
9,1324441976,4330,565,224.8365020751953000,83.0036468505859400,22.3475494384765620,29.2628707885742200,30.1970100402832030,33.9460792541503900,3.7490620613098145,652.3549194335938000,677.3632812500000000,-35.2538986206054700,8699
9,1324442033,4330,565,226.0260009765625000,83.6793670654296900,22.4950695037841800,29.1420993804931640,30.0783596038818360,33.8210105895996100,3.7426528930664062,648.7747192382812000,674.4910278320312000,-40.0900497436523440,15093
9,1324442090,4330,565,226.5968933105468800,84.0358428955078100,22.5852909088134770,29.0763092041015620,30.0137290954589840,33.7634696960449200,3.7497479915618896,646.6895751953125000,673.1425781250000000,-43.0452003479003900,57731
9,1324442148,4330,565,227.2129058837890600,84.4400634765625000,22.6942100524902340,29.0009708404541000,29.9396991729736330,33.6907615661621100,3.7510600090026855,644.4459228515625000,672.1171875000000000,-46.6101989746093750,33071
9,1324442238,4330,565,229.0335998535156200,85.3858871459961000,22.8596591949462900,28.8436298370361330,29.7851104736328120,33.5377883911132800,3.7526779174804688,639.5983276367188000,671.5778808593750000,-52.0201110839843750,25710
9,1324442318,4330,565,230.0522003173828000,85.8304290771484400,22.8992595672607420,28.7784004211425780,29.7210292816162100,33.4717102050781250,3.7506790161132812,637.6937255859375000,669.7877197265625000,-53.3139686584472660,20665
9,1324442375,4330,565,231.1210021972656200,86.5699768066406200,23.1065902709960940,28.6415290832519530,29.5865592956542970,33.3385810852050800,3.7520289421081543,633.7634277343750000,669.8886718750000000,-60.0821609497070300,4446
9,1324442432,4330,565,231.9297027587890600,88.0950469970703100,23.8461399078369140,28.2999591827392580,29.2509593963623050,33.0042190551757800,3.7532579898834230,623.4240112304688000,664.7971191406250000,-84.1351470947265600,33749
9,1324442490,4330,565,233.9355926513672000,89.7918930053711000,24.4055404663085940,27.9795093536376950,28.9361190795898440,32.6967086791992200,3.7605900764465330,613.1851196289062000,659.0786132812500000,-102.2334976196289000,14129
9,1324442580,4330,565,236.2734985351562500,90.8408279418945300,24.4952297210693360,27.8356494903564450,28.7947807312011720,32.5516090393066400,3.7568359375000000,608.7531127929688000,656.1303100585938000,-105.1271972656250000,62770
9,1324442660,4330,565,236.9160003662109400,91.1003494262695300,24.5026092529296880,27.8031406402587900,28.7628402709960940,32.5236701965332000,3.7608339786529540,607.9191894531250000,655.4113769531250000,-105.3653030395507800,55860
9,1324442717,4330,565,237.1452026367187500,91.1863403320312500,24.5013408660888670,27.7933902740478500,28.7532596588134770,32.5131797790527340,3.7599260807037354,607.8529052734375000,656.2100830078125000,-105.3242034912109400,33903
9,1324442774,4330,565,237.2095031738281200,91.2114028930664000,24.5015296936035160,27.7902908325195300,28.7502193450927730,32.5068702697753900,3.7566449642181396,607.8427734375000000,656.1030883789062000,-105.3302993774414000,63939
9,1324442832,4330,565,237.3011016845703000,91.2485427856445300,24.5026702880859380,27.7855892181396500,28.7455997467041000,32.5041198730468750,3.7585220336914062,607.8060913085938000,655.0059204101562000,-105.3673019409179700,38287
9,1324442892,4330,565,237.3126068115234400,91.2500228881836000,24.5009498596191400,27.7858390808105470,28.7458400726318360,32.5041694641113300,3.7583239078521730,607.8676147460938000,654.9915161132812000,-105.3116989135742200,12580
9,1324442949,4330,565,237.4815063476562500,91.3126602172851600,24.4995994567871100,27.7786903381347660,28.7388191223144530,32.4972801208496100,3.7584691047668457,607.8427734375000000,655.0537719726562000,-105.2682037353515600,3633
9,1324443006,4330,565,237.4864044189453000,91.3118515014648400,24.4979991912841800,27.7790794372558600,28.7392005920410160,32.4965705871582000,3.7573699951171875,607.8759765625000000,656.1588134765625000,-105.2166976928711000,60133
9,1324443064,4330,565,237.5601959228515600,91.3392562866211000,24.4974498748779300,27.7759609222412100,28.7361392974853500,32.4916496276855500,3.7555160522460938,607.9802246093750000,656.2564697265625000,-105.1987991333007800,51571
9,1324443122,4330,565,237.6763000488281200,91.3869171142578100,24.4992103576660160,27.7700195312500000,28.7303009033203120,32.4865608215332000,3.7562639713287354,608.0316772460938000,655.1878051757812000,-105.2555007934570300,13725
9,1324443180,4330,565,237.7377014160156200,91.4097290039062500,24.4987392425537100,27.7673397064209000,28.7276706695556640,32.4844284057617200,3.7567598819732666,608.0772094726562000,656.3513183593750000,-105.2405014038086000,21687
9,1324443256,4330,565,237.8135070800781200,91.4335784912109400,24.4956493377685550,27.7651500701904300,28.7255191802978500,32.4796295166015600,3.7541120052337646,608.1043701171875000,655.3950805664062000,-105.1406021118164000,26084
9,1324443330,4330,565,238.0565032958984400,91.4700698852539000,24.4621906280517580,27.7673606872558600,28.7276897430419920,32.4829292297363300,3.7552340030670166,608.3593750000000000,656.7102050781250000,-104.0614013671875000,61162
9,1324444082,4330,565,239.3755035400390600,91.0781936645507800,23.9368591308593750,27.9190292358398440,28.8766994476318360,32.6174507141113300,3.7407529354095460,613.5258178710938000,661.6400146484375000,-87.0758438110351600,10946
9,1324444110,4330,565,237.2980041503906200,90.8088836669921900,24.2443008422851560,27.8897495269775400,28.8479309082031250,32.5897903442382800,3.7418589591979980,612.5989990234375000,659.8339843750000000,-97.0255737304687500,11034
9,1324444138,4330,565,238.1251983642578000,90.8349533081054700,24.0735702514648440,27.9206199645996100,28.8782691955566400,32.6196212768554700,3.7413558959960938,613.4265747070312000,660.4194946289062000,-91.5033493041992200,5961
9,1324444165,4330,565,239.0234069824218800,91.1091384887695300,24.0334796905517580,27.8960609436035160,28.8541297912597660,32.5978012084960940,3.7436680793762207,612.6887817382812000,659.8695068359375000,-90.2055587768554700,22238
9,1324444193,4330,565,238.5883026123047000,91.1417236328125000,24.1498908996582030,27.8687591552734380,28.8273105621337900,32.5692710876464840,3.7419660091400146,612.0678100585938000,659.7551269531250000,-93.9728469848632800,22438
9,1324444220,4330,565,243.6575012207031200,92.0567169189453100,23.5624504089355470,27.8779392242431640,28.8363304138183600,32.5769386291503900,3.7406160831451416,612.2272949218750000,661.0490112304688000,-74.9250869750976600,50272
9,1324444248,4330,565,241.0709991455078000,91.4085769653320300,23.7539005279541000,27.9163799285888670,28.8740997314453120,32.6162185668945300,3.7421190738677980,613.6077880859375000,660.5706787109375000,-81.1430130004882800,59217
9,1324444276,4330,565,241.1307983398437500,92.2272186279296900,24.2161998748779300,27.7274703979492200,28.6884899139404300,32.4282913208007800,3.7397990226745605,607.8162841796875000,659.9003295898438000,-96.1173171997070300,55793
9,1324444303,4330,565,239.2290039062500000,91.1598663330078100,24.0172996520996100,27.8932590484619140,28.8513908386230470,32.5953903198242200,3.7440030574798584,612.7509765625000000,660.1339721679688000,-89.6817626953125000,30473
9,1324444331,4330,565,240.3114013671875000,92.0255584716796900,24.2812690734863280,27.7382297515869140,28.6990699768066400,32.4385681152343750,3.7395019531250000,608.2666015625000000,660.1281127929688000,-98.2202987670898400,60237
9,1324444359,4330,565,242.5238952636718800,91.6666183471679700,23.5845298767089840,27.9195594787597660,28.8772201538085940,32.6167907714843750,3.7395710945129395,613.5614013671875000,661.2053833007812000,-75.6427307128906200,9614
